DIAMOND RED (42783 NORAD) Tracking and Keplerian Element Data

This shows tracking and keplerian element data for the satellite.

Feedback or suggestion? Click here.




ElementValue
Catalog42783
NameDIAMOND RED
Epoch Orbit29243
Epoch Day269.8795564
Epoch Year2022
RAAN307.2345
Inclination97.1904
Eccentricity0.0009106
Argument of Perigee338.9683
Mean Anonmoly21.1181
Mean Motion15.28948571
Decay Rate8.062E-05
L11 42783U 17036U 22269.87955640 .00008062 00000+0 28892-3 0 9993
L22 42783 97.1904 307.2345 0009106 338.9683 21.1181 15.28948571292430

Live tracking and technical data element details for DIAMOND RED (NORAD 42783). DIAMOND RED can be tracked NOW for your location showing map with azimuth and elevation plus other details from your city location.

Track the satellite on the map from your city or location and see movement details for azimuth, elevation, latitude, longitude, range, height, and movement on the map or in text.







IsCatalogInMostPopularTable: catalog: 42783, numindb: 929
Update: records affected: 1



GetName: 42783 DIAMOND RED

Hit Count: updated at: Thu, 29 Sep 2022 11:51:33 GMT